Weather History for Dublin, VA

Change the Weather History Date:

Tuesday, October 18, 2011

  Actual Average (KBCB) Record (KBCB)
Temperature  
Mean Temperature 65 °F 52 °F  
Max Temperature 80 °F 65 °F 80 °F (1953)
Min Temperature 50 °F 38 °F 22 °F (1970)
Degree Days  
Heating Degree Days 0 13  
Month to date heating degree days 198  
Since 1 July heating degree days 329  
Cooling Degree Days 0 0  
Month to date cooling degree days 1  
Year to date cooling degree days 570  
Growing Degree Days 15 (Base 50)    
Moisture  
Dew Point 52 °F    
Average Humidity 71    
Maximum Humidity 100    
Minimum Humidity 30    
Precipitation  
Precipitation 0.00 in 0.09 in 2.68 in (1975)
Month to date precipitation 1.61  
Year to date precipitation 33.90  
Snow  
Snow 0.00 in - - ()
Month to date snowfall  
Since 1 July snowfall  
Since 1 September snowfall  
Snow Depth -    
Sea Level Pressure  
Sea Level Pressure 29.86 in    
Wind  
Wind Speed 2 mph (South)    
Max Wind Speed 10 mph    
Max Gust Speed 16 mph    
Visibility 9 miles    
Events      
T = Trace of Precipitation, MM = Missing Value Source: NWS Daily Summary

Daily Weather History Graph

Daily Weather History Graph

Search for Another Location

Airport:

Trip Planner

Search our weather history database for the weather conditions in past years. The results will help you decide how hot, cold, wet, or windy it might be!

Date:

Astronomy

Oct. 18, 2011 Rise Set
Actual Time 7:33 AM EDT 6:42 PM EDT
Civil Twilight 7:06 AM EDT 7:08 PM EDT
Nautical Twilight 6:36 AM EDT 7:38 PM EDT
Astronomical Twilight 6:06 AM EDT 8:08 PM EDT
Moon 11:26 PM EDT (10/18) 1:17 PM EDT (10/18)
Length of Visible Light 12h 01m
Length of Day
11h 09m
Waning Gibbous, 65% of the Moon is Illuminated
Oct 18
Waning Gibbous
Oct 19
Last Quarter
Oct 26
New
Nov 2
First Quarter
Nov 10
Full

Hourly Weather History & Observations

Time (EDT) Temp. Dew Point Humidity Pressure Visibility Wind Dir Wind Speed Gust Speed Precip Events Conditions
12:15 AM 59.0 °F 53.6 °F 82% 29.91 in 10.0 mi SW 3.5 mph - N/A   Clear
12:35 AM 59.0 °F 53.6 °F 82% 29.90 in 10.0 mi Calm Calm - N/A   Clear
1:15 AM 57.2 °F 53.6 °F 88% 29.89 in 10.0 mi Calm Calm - N/A   Clear
1:35 AM 57.2 °F 53.6 °F 88% 29.90 in 10.0 mi Calm Calm - N/A   Clear
1:55 AM 57.2 °F 53.6 °F 88% 29.90 in 10.0 mi SW 3.5 mph - N/A   Clear
2:15 AM 57.2 °F 53.6 °F 88% 29.90 in 10.0 mi Calm Calm - N/A   Clear
2:35 AM 53.6 °F 51.8 °F 94% 29.89 in 10.0 mi Calm Calm - N/A   Clear
2:55 AM 53.6 °F 51.8 °F 94% 29.89 in 10.0 mi Calm Calm - N/A   Clear
3:15 AM 55.4 °F 53.6 °F 94% 29.89 in 10.0 mi Calm Calm - N/A   Clear
3:55 AM 53.6 °F 53.6 °F 100% 29.89 in 10.0 mi Calm Calm - N/A   Clear
4:15 AM 53.6 °F 51.8 °F 94% 29.89 in 10.0 mi Calm Calm - N/A   Clear
4:35 AM 53.6 °F 51.8 °F 94% 29.89 in 7.0 mi Calm Calm - N/A   Clear
4:55 AM 51.8 °F 51.8 °F 100% 29.89 in 5.0 mi Calm Calm - N/A   Clear
5:15 AM 51.8 °F 51.8 °F 100% 29.89 in 5.0 mi Calm Calm - N/A   Clear
5:35 AM 51.8 °F 51.8 °F 100% 29.89 in 7.0 mi Calm Calm - N/A   Clear
5:55 AM 51.8 °F 51.8 °F 100% 29.90 in 7.0 mi Calm Calm - N/A   Clear
6:15 AM 51.8 °F 51.8 °F 100% 29.89 in 5.0 mi Calm Calm - N/A   Clear
6:35 AM 51.8 °F 51.8 °F 100% 29.89 in 7.0 mi Calm Calm - N/A   Clear
6:55 AM 50.0 °F 50.0 °F 100% 29.89 in 4.0 mi Calm Calm - N/A   Clear
7:15 AM 50.0 °F 50.0 °F 100% 29.90 in 4.0 mi Calm Calm - N/A   Scattered Clouds
7:35 AM 51.8 °F 51.8 °F 100% 29.89 in 4.0 mi Calm Calm - N/A   Clear
7:55 AM 51.8 °F 51.8 °F 100% 29.90 in 3.0 mi Calm Calm - N/A   Clear
8:35 AM 53.6 °F 53.6 °F 100% 29.91 in 4.0 mi Calm Calm - N/A   Clear
8:55 AM 53.6 °F 53.6 °F 100% 29.92 in 4.0 mi Calm Calm - N/A   Clear
9:15 AM 55.4 °F 55.4 °F 100% 29.92 in 5.0 mi Calm Calm - N/A   Clear
9:35 AM 57.2 °F 57.2 °F 100% 29.92 in 7.0 mi Calm Calm - N/A   Clear
9:55 AM 60.8 °F 57.2 °F 88% 29.91 in 10.0 mi Calm Calm - N/A   Clear
10:15 AM 62.6 °F 57.2 °F 82% 29.91 in 10.0 mi Calm Calm - N/A   Clear
10:35 AM 64.4 °F 57.2 °F 77% 29.91 in 10.0 mi Calm Calm - N/A   Clear
10:55 AM 66.2 °F 57.2 °F 73% 29.90 in 10.0 mi Calm Calm - N/A   Clear
11:15 AM 68.0 °F 57.2 °F 68% 29.90 in 10.0 mi Calm Calm - N/A   Clear
11:35 AM 69.8 °F 57.2 °F 64% 29.89 in 10.0 mi Calm Calm - N/A   Clear
11:55 AM 71.6 °F 60.8 °F 69% 29.89 in 10.0 mi NE 3.5 mph - N/A   Clear
12:15 PM 73.4 °F 59.0 °F 61% 29.88 in 10.0 mi East 4.6 mph - N/A   Clear
12:55 PM 75.2 °F 55.4 °F 50% 29.87 in 10.0 mi South 5.8 mph - N/A   Clear
1:15 PM 75.2 °F 53.6 °F 47% 29.85 in 10.0 mi South 3.5 mph - N/A   Clear
1:35 PM 77.0 °F 51.8 °F 41% 29.84 in 10.0 mi Calm Calm - N/A   Clear
1:55 PM 77.0 °F 51.8 °F 41% 29.82 in 10.0 mi WSW 3.5 mph - N/A   Clear
2:15 PM 78.8 °F 53.6 °F 42% 29.81 in 7.0 mi Calm Calm - N/A   Clear
2:35 PM 78.8 °F 53.6 °F 42% 29.80 in 10.0 mi East 4.6 mph - N/A   Clear
2:55 PM 78.8 °F 53.6 °F 42% 29.79 in 7.0 mi Calm Calm - N/A   Clear
3:15 PM 78.8 °F 53.6 °F 42% 29.78 in 10.0 mi Calm Calm - N/A   Clear
3:35 PM 78.8 °F 48.2 °F 34% 29.78 in 10.0 mi SSE 5.8 mph - N/A   Scattered Clouds
3:55 PM 80.6 °F 46.4 °F 30% 29.78 in 10.0 mi South 8.1 mph - N/A   Scattered Clouds
4:15 PM 78.8 °F 44.6 °F 30% 29.78 in 10.0 mi SSW 9.2 mph - N/A   Clear
4:35 PM 78.8 °F 44.6 °F 30% 29.77 in 10.0 mi South 9.2 mph - N/A   Clear
4:55 PM 77.0 °F 46.4 °F 34% 29.78 in 10.0 mi South 8.1 mph - N/A   Clear
5:15 PM 75.2 °F 48.2 °F 38% 29.77 in 10.0 mi South 4.6 mph - N/A   Clear
5:35 PM 73.4 °F 48.2 °F 41% 29.78 in 10.0 mi South 8.1 mph - N/A   Clear
5:55 PM 73.4 °F 48.2 °F 41% 29.79 in 10.0 mi South 8.1 mph - N/A   Clear
6:15 PM 73.4 °F 46.4 °F 38% 29.78 in 10.0 mi South 10.4 mph 16.1 mph N/A   Clear
6:35 PM 71.6 °F 48.2 °F 43% 29.76 in 10.0 mi SSE 8.1 mph - N/A   Clear
6:55 PM 71.6 °F 50.0 °F 46% 29.78 in 10.0 mi South 5.8 mph - N/A   Clear
7:15 PM 71.6 °F 50.0 °F 46% 29.79 in 10.0 mi SSE 6.9 mph - N/A   Clear
7:35 PM 71.6 °F 50.0 °F 46% 29.77 in 10.0 mi SE 8.1 mph - N/A   Clear
7:55 PM 71.6 °F 50.0 °F 46% 29.77 in 10.0 mi SSE 10.4 mph 17.3 mph N/A   Clear
8:15 PM 71.6 °F 50.0 °F 46% 29.77 in 10.0 mi SE 9.2 mph - N/A   Clear
8:35 PM 69.8 °F 51.8 °F 53% 29.75 in 10.0 mi SSE 19.6 mph 24.2 mph N/A Rain Light Rain
8:55 PM 69.8 °F 50.0 °F 49% 29.75 in 10.0 mi SSE 13.8 mph 21.9 mph N/A   Scattered Clouds
9:15 PM 69.8 °F 53.6 °F 56% 29.77 in 10.0 mi SSE 8.1 mph - N/A   Clear
9:35 PM 68.0 °F 53.6 °F 60% 29.76 in 10.0 mi SSE 9.2 mph 20.7 mph N/A   Clear
9:55 PM 64.4 °F 53.6 °F 68% 29.77 in 10.0 mi SSE 6.9 mph - N/A   Clear
10:15 PM 64.4 °F 53.6 °F 68% 29.77 in 10.0 mi SE 8.1 mph - N/A Rain Light Rain
10:35 PM 60.8 °F 55.4 °F 82% 29.76 in 10.0 mi SSE 12.7 mph 17.3 mph N/A Rain Light Rain
10:55 PM 60.8 °F 57.2 °F 88% 29.74 in 10.0 mi SE 9.2 mph - N/A Rain Light Rain
11:15 PM 60.8 °F 57.2 °F 88% 29.73 in 10.0 mi SE 12.7 mph 18.4 mph N/A Rain Light Rain
11:35 PM 60.8 °F 57.2 °F 88% 29.75 in 10.0 mi SE 9.2 mph - 0.01 in Rain Rain
11:55 PM 59.0 °F 57.2 °F 94% 29.74 in 10.0 mi East 5.8 mph - N/A Rain Light Rain